This is the latest recevied weather packets stored in our database for station/object AI5BL. If no packets are shown the sender has not sent any weather packets the latest 10 day(s).
| Time | Temp. | Humidity | Pressure | Rain* | Wind** | Luminosity | Snow |
|---|---|---|---|---|---|---|---|
| 1787946103 | 33.33° C | 55% | 1018 hPa | 0 mm | - | 387 W/m² | - |
| 1787945798 | 32.22° C | 55% | 1018 hPa | 0 mm | - | 676 W/m² | - |
| 1787945492 | 32.78° C | 54% | 1018.1 hPa | 0 mm | - | 84 W/m² | - |
| 1787945189 | 33.89° C | 52% | 1018.2 hPa | 0 mm | - | 85 W/m² | - |
| 1787944887 | 34.44° C | 51% | 1018.2 hPa | 0 mm | - | 785 W/m² | - |
| 1787944585 | 32.78° C | 51% | 1018.3 hPa | 0 mm | - | 770 W/m² | - |
| 1787944281 | 32.78° C | 55% | 1018.5 hPa | 0 mm | - | 175 W/m² | - |
| 1787943976 | 32.78° C | 54% | 1018.5 hPa | 0 mm | - | 119 W/m² | - |
| 1787943672 | 33.33° C | 59% | 1018.6 hPa | 0 mm | - | 815 W/m² | - |
| 1787943372 | 32.22° C | 56% | 1018.6 hPa | 0 mm | - | 812 W/m² | - |
| 1787943067 | 33.33° C | 54% | 1018.6 hPa | 0 mm | - | 85 W/m² | - |
| 1787942761 | 33.33° C | 56% | 1018.6 hPa | 0 mm | - | 809 W/m² | - |
| 1787942456 | 31.67° C | 60% | 1018.6 hPa | 0 mm | - | 803 W/m² | - |
| 1787942156 | 32.22° C | 59% | 1018.6 hPa | 0 mm | - | 115 W/m² | - |
| 1787941852 | 32.78° C | 56% | 1018.5 hPa | 0 mm | - | 127 W/m² | - |
| 1787941551 | 32.22° C | 59% | 1018.6 hPa | 0 mm | - | 204 W/m² | - |
| 1787941246 | 32.78° C | 58% | 1018.7 hPa | 0 mm | - | 134 W/m² | - |
| 1787940940 | 33.89° C | 55% | 1018.7 hPa | 0 mm | - | 192 W/m² | - |
| 1787940638 | 32.78° C | 56% | 1018.8 hPa | 0 mm | - | 856 W/m² | - |
| 1787940337 | 32.78° C | 59% | 1018.7 hPa | 0 mm | - | 286 W/m² | - |
| 1787940037 | 34.44° C | 53% | 1018.9 hPa | 0 mm | - | 125 W/m² | - |
| 1787939736 | 33.89° C | 53% | 1019 hPa | 0 mm | - | 832 W/m² | - |
| 1787939432 | 33.89° C | 54% | 1019 hPa | 0 mm | - | 282 W/m² | - |
| 1787939127 | 32.78° C | 60% | 1019 hPa | 0 mm | - | 816 W/m² | - |
| 1787938826 | 33.33° C | 58% | 1019.2 hPa | 0 mm | - | 227 W/m² | - |
* Rain latest hour (hover to see other rain measurements)
** Current wind speed in m/s (hover to see current wind gust speed)